Waarnemingen

Advertentie
Mijn weer
Chambery/Aix-Les-Bains, Frankrijk (7491): temperatuur & dauwpunt: 19.05.2019 21:00:00 - 25.05.2019 21:00:00 (CEST)Chambery/Aix-Les-Bains, Frankrijk (7491): temperatuur 5cm: 19.05.2019 21:00:00 - 25.05.2019 21:00:00 (CEST)Chambery/Aix-Les-Bains, Frankrijk (7491): temperatuur -20cm & temperatuur -100cm: 19.05.2019 21:00:00 - 25.05.2019 21:00:00 (CEST)Chambery/Aix-Les-Bains, Frankrijk (7491): windsnelheid & windstoten: 19.05.2019 21:00:00 - 25.05.2019 21:00:00 (CEST)Chambery/Aix-Les-Bains, Frankrijk (7491): windrichting: 19.05.2019 21:00:00 - 25.05.2019 21:00:00 (CEST)Chambery/Aix-Les-Bains, Frankrijk (7491): luchtdruk: 19.05.2019 21:00:00 - 25.05.2019 21:00:00 (CEST)Chambery/Aix-Les-Bains, Frankrijk (7491): zicht: 19.05.2019 21:00:00 - 25.05.2019 21:00:00 (CEST)Chambery/Aix-Les-Bains, Frankrijk (7491): Zonneschijnduur: 19.05.2019 21:00:00 - 25.05.2019 21:00:00 (CEST)Chambery/Aix-Les-Bains, Frankrijk (7491): neerslag: 19.05.2019 21:00:00 - 25.05.2019 21:00:00 (CEST)
Datum & Tijd tt [°C] td [°C] tt 5cm [°C] tt -20cm [°C] tt -100cm [°C] ff [km/u] ff [kn] fx [km/u] fx [kn] dd ppp [hPa] vv [km] sd [min] rr [mm]
25.05.2019 21:00:00 16,2 13,3 14,7 15,3 12,8 5 3 13 7 NW 1016,4 13 3 0,0
25.05.2019 20:00:00 16,2 14,0 15,7 15,3 12,8 9 5 14 8 NW 1016,3 11 13 0,0
25.05.2019 19:00:00 17,0 15,2 16,9 15,3 12,8 6 3 9 5 ZO 1015,5 9 0 0,0
25.05.2019 18:00:00 16,8 14,8 16,0 15,2 12,8 3 1 13 7 NNW 1015,6 6 0 1,4
25.05.2019 17:00:00 17,9 13,4 16,6 15,2 12,8 10 5 30 16 NNW 1015,2 12 0 0,2
25.05.2019 16:00:00 19,0 13,2 17,8 15,1 12,8 6 3 12 7 O 1015,0 10 6 0,0
25.05.2019 15:00:00 19,6 14,2 24,7 15,1 12,8 6 3 12 6 OZO 1015,0 10 4 0,0
25.05.2019 14:00:00 17,8 13,5 18,6 15,0 12,7 5 3 8 5 Z 1015,7 10 0 0,0
25.05.2019 13:00:00 16,7 12,8 16,4 15,0 12,7 0 0 6 3 N 1016,3 11 0 0,2
25.05.2019 12:00:00 16,2 13,1 16,2 15,0 12,8 2 1 6 3 Z 1016,4 7 0 0,2
25.05.2019 11:00:00 16,4 12,2 16,6 15,0 12,7 0 0 4 2 N 1016,4 9 0 0,0
25.05.2019 10:00:00 16,0 11,6 16,6 15,1 12,7 2 1 6 3 NNO 1016,1 10 0 0,0
25.05.2019 09:00:00 15,4 12,0 15,7 15,1 12,7 0 0 5 3 N 1015,8 13 0 0,0
25.05.2019 08:00:00 14,3 12,5 12,6 15,1 12,7 0 0 3 2 N 1015,3 10 0 0,0
25.05.2019 07:00:00 13,1 11,8 11,0 15,2 12,7 3 2 6 3 NO 1015,0 10 0 0,0
25.05.2019 06:00:00 13,0 11,6 10,6 15,3 12,7 3 1 4 2 Z 1014,6 11 0 0,0
25.05.2019 05:00:00 12,8 10,9 9,4 15,3 12,7 3 1 7 4 WNW 1014,4 12 0 0,0
25.05.2019 04:00:00 12,4 11,0 8,0 15,4 12,7 0 0 5 3 N 1014,1 11 0 0,0
25.05.2019 03:00:00 12,7 10,4 7,9 15,4 12,7 2 1 5 3 ONO 1014,1 11 0 0,0
25.05.2019 02:00:00 13,8 11,0 10,1 15,5 12,7 4 2 7 4 Z 1013,9 12 0 0,0
25.05.2019 01:00:00 15,3 11,1 10,7 15,5 12,7 4 2 8 4 OZO 1014,0 13 0 0,0
25.05.2019 00:00:00 16,5 11,4 12,5 15,5 12,7 3 2 14 8 WZW 1013,5 12 0 0,0
24.05.2019 23:00:00 18,1 10,7 11,7 15,5 12,7 6 3 12 7 NW 1013,2 13 0 0,0
24.05.2019 22:00:00 18,5 11,1 12,9 15,5 12,7 8 4 16 9 NNW 1012,7 13 0 0,0
24.05.2019 21:00:00 18,3 12,9 15,5 15,4 12,7 11 6 19 10 N 1012,2 13 0 0,0
24.05.2019 20:00:00 21,1 12,2 18,6 15,3 12,6 7 4 16 8 N 1011,4 13 18 0,0
24.05.2019 19:00:00 23,9 10,2 21,3 15,2 12,6 11 6 24 13 NNW 1010,7 14 46 0,0
24.05.2019 18:00:00 23,3 11,0 24,5 15,1 12,6 12 7 23 12 NNO 1010,9 8 42 0,0
24.05.2019 17:00:00 24,5 10,0 26,5 14,9 12,6 12 6 24 13 N 1011,2 11 53 0,0
24.05.2019 16:00:00 25,1 10,9 31,8 14,7 12,6 14 7 24 13 N 1011,7 7 60 0,0
24.05.2019 15:00:00 24,2 8,6 32,4 14,6 12,6 15 8 23 12 N 1012,4 9 60 0,0
24.05.2019 14:00:00 22,7 11,7 32,6 14,5 12,6 9 5 16 9 N 1013,0 13 60 0,0
24.05.2019 13:00:00 20,7 10,8 30,2 14,5 12,6 9 5 15 8 N 1013,8 11 60 0,0
24.05.2019 12:00:00 19,4 13,1 28,5 14,4 12,6 8 5 12 7 N 1014,5 12 58 0,0
24.05.2019 11:00:00 19,0 10,3 25,7 14,4 12,6 5 3 11 6 N 1014,9 14 60 0,0
24.05.2019 10:00:00 17,5 10,8 20,9 14,4 12,6 3 1 9 5 NO 1015,4 11 60 0,0
24.05.2019 09:00:00 14,9 10,9 12,8 14,5 12,6 2 1 5 3 NO 1015,9 10 30 0,0
24.05.2019 08:00:00 11,4 10,1 8,7 14,6 12,6 3 2 4 2 ZZO 1016,4 8 2 0,0
24.05.2019 07:00:00 9,8 9,2 4,8 14,6 12,6 3 2 7 4 ZO 1016,3 9 9 0,2
24.05.2019 06:00:00 9,4 8,3 3,8 14,7 12,6 3 2 5 3 ZO 1016,1 11 0 0,0
24.05.2019 05:00:00 10,1 8,7 5,5 14,8 12,5 2 1 6 4 OZO 1015,7 11 0 0,0
24.05.2019 04:00:00 10,6 9,2 7,0 14,9 12,6 4 2 7 4 Z 1015,8 11 0 0,0
24.05.2019 03:00:00 10,9 9,5 6,9 15,0 12,6 0 0 7 4 N 1015,9 12 0 0,0
24.05.2019 02:00:00 11,3 9,4 5,4 15,1 12,5 2 1 7 4 ZO 1015,7 12 0 0,0
24.05.2019 01:00:00 11,7 9,6 5,8 15,1 12,5 - - 6 4 - 1015,6 12 0 0,0
24.05.2019 00:00:00 12,3 9,5 6,1 15,2 12,5 0 0 5 3 N 1015,8 13 0 0,0
23.05.2019 23:00:00 13,5 9,7 6,8 15,2 12,6 2 1 7 4 WZW 1015,5 12 0 0,0
23.05.2019 22:00:00 15,2 10,4 7,9 15,1 12,5 4 2 6 3 WZW 1015,2 14 0 0,0
23.05.2019 21:00:00 17,4 10,5 10,3 15,1 12,5 4 2 6 4 WZW 1014,3 13 0 0,0
23.05.2019 20:00:00 20,2 9,7 14,8 15,0 12,5 3 2 11 6 W 1013,8 15 32 0,0
23.05.2019 19:00:00 24,4 9,9 27,6 14,8 12,5 6 3 11 6 NNW 1013,4 13 60 0,0
23.05.2019 18:00:00 23,6 11,9 30,0 14,7 12,5 7 4 18 10 N 1013,7 13 60 0,0
23.05.2019 17:00:00 23,9 10,6 32,9 14,5 12,5 12 6 20 11 N 1013,9 13 60 0,0
23.05.2019 16:00:00 23,5 10,2 31,5 14,3 12,5 12 6 20 11 N 1014,6 7 60 0,0
23.05.2019 15:00:00 22,6 10,1 32,2 14,2 12,5 13 7 21 11 N 1015,3 12 60 0,0
23.05.2019 14:00:00 21,4 9,3 31,1 14,1 12,5 10 6 17 9 NNW 1015,8 14 60 0,0
23.05.2019 13:00:00 20,5 9,1 31,3 14,0 12,5 8 4 17 9 N 1016,7 13 60 0,0
23.05.2019 12:00:00 19,8 9,9 29,2 14,0 12,5 7 4 16 9 NNW 1017,4 15 60 0,0
23.05.2019 11:00:00 18,1 7,8 26,3 14,0 12,5 9 5 18 10 N 1017,8 15 60 0,0
23.05.2019 10:00:00 16,9 8,1 23,0 14,0 12,5 11 6 18 10 NNW 1018,3 13 60 0,0
23.05.2019 09:00:00 14,7 8,0 16,8 14,1 12,5 3 1 9 5 NNW 1018,7 13 60 0,0
23.05.2019 08:00:00 11,0 8,7 3,8 14,3 12,5 5 3 11 6 ZZO 1019,1 12 60 0,0
23.05.2019 07:00:00 7,1 6,5 1,6 14,3 12,4 3 2 6 4 W 1019,3 10 0 0,0
23.05.2019 06:00:00 6,8 6,1 1,3 14,4 12,5 3 1 6 3 OZO 1019,1 2,9 0 0,0
23.05.2019 05:00:00 7,8 6,6 1,9 14,5 12,4 4 2 7 4 ZZW 1018,8 11 0 0,0
23.05.2019 04:00:00 7,8 6,3 2,6 14,6 12,5 6 3 8 4 ZZO 1019,0 12 0 0,0
23.05.2019 03:00:00 9,4 7,3 4,6 14,6 12,4 4 2 10 5 Z 1018,8 13 0 0,0
23.05.2019 02:00:00 9,8 7,4 5,6 14,7 12,4 7 4 15 8 ZZO 1018,8 13 0 0,0
23.05.2019 01:00:00 13,2 7,2 6,6 14,7 12,4 7 4 18 10 NW 1018,3 14 0 0,0
23.05.2019 00:00:00 15,2 7,5 7,2 14,8 12,4 14 8 24 13 N 1018,2 14 0 0,0
22.05.2019 23:00:00 15,9 7,9 9,8 14,8 12,4 7 4 26 14 NW 1018,1 14 0 0,0
22.05.2019 22:00:00 18,0 7,4 13,6 14,8 12,4 20 11 30 16 NNO 1017,5 15 0 0,0
22.05.2019 21:00:00 17,3 9,2 14,9 14,7 12,4 12 7 25 14 NNO 1016,9 15 0 0,0
22.05.2019 20:00:00 18,9 9,7 16,9 14,7 12,4 13 7 29 15 N 1016,3 15 5 0,0
22.05.2019 19:00:00 19,5 10,2 18,2 14,6 12,4 12 6 22 12 N 1016,0 15 25 0,0
22.05.2019 18:00:00 19,6 10,3 18,2 14,5 12,4 10 5 18 10 N 1016,1 15 13 0,0
22.05.2019 17:00:00 20,3 8,9 19,6 14,3 12,4 10 5 22 12 NNW 1016,2 14 2 0,0
22.05.2019 16:00:00 22,6 9,7 27,7 14,2 12,4 17 9 23 13 N 1016,3 12 56 0,0
22.05.2019 15:00:00 22,7 8,4 33,5 14,1 12,4 13 7 25 14 N 1016,3 12 60 0,0
22.05.2019 14:00:00 22,1 7,9 31,7 13,9 12,4 12 6 29 16 N 1016,8 9 60 0,0
22.05.2019 13:00:00 20,9 9,5 30,7 13,9 12,4 21 11 31 17 NNW 1017,0 7 60 0,0
22.05.2019 12:00:00 19,5 10,8 26,9 13,8 12,4 18 10 25 14 NNW 1017,5 6 60 0,0
22.05.2019 11:00:00 18,3 10,6 25,2 13,9 12,4 14 8 22 12 N 1017,6 12 60 0,0
22.05.2019 10:00:00 16,4 10,9 22,4 13,9 12,4 11 6 17 9 N 1018,0 11 60 0,0
22.05.2019 09:00:00 15,0 9,6 18,3 13,9 12,4 8 4 13 7 NNW 1018,4 11 60 0,0
22.05.2019 08:00:00 11,9 9,6 6,5 14,0 12,3 4 2 7 4 ZZO 1018,5 8 60 0,0
22.05.2019 07:00:00 8,2 7,6 4,4 14,1 12,3 4 2 9 5 ZO 1018,6 8 0 0,0
22.05.2019 06:00:00 7,2 6,5 4,3 14,2 12,3 5 3 10 5 Z 1018,3 6 0 0,0
22.05.2019 05:00:00 8,1 6,7 3,8 14,3 12,3 5 3 6 4 Z 1017,9 4,2 0 0,0
22.05.2019 04:00:00 9,3 7,6 5,8 14,3 12,3 5 3 17 9 Z 1017,6 11 0 0,0
22.05.2019 03:00:00 13,9 8,1 5,6 14,4 12,4 9 5 20 11 NNW 1016,9 14 0 0,0
22.05.2019 02:00:00 12,9 8,6 5,7 14,5 12,3 4 2 9 5 W 1016,9 13 0 0,0
22.05.2019 01:00:00 13,5 8,8 6,4 14,5 12,3 4 2 21 11 WNW 1017,0 13 0 0,0
22.05.2019 00:00:00 14,6 9,0 12,0 14,5 12,3 12 7 24 13 N 1016,8 14 0 0,0
21.05.2019 23:00:00 15,6 9,3 13,5 14,5 12,3 15 8 37 20 N 1016,4 14 0 0,0
21.05.2019 22:00:00 16,2 9,4 14,5 14,5 12,3 23 12 41 22 N 1015,7 15 0 0,0
21.05.2019 21:00:00 16,8 8,7 14,6 14,5 12,3 16 9 37 20 N 1014,8 15 0 0,0
21.05.2019 20:00:00 18,9 8,2 17,9 14,4 12,3 24 13 43 23 NNW 1013,9 14 32 0,0
21.05.2019 19:00:00 19,7 9,0 20,8 14,3 12,3 21 11 41 22 NNW 1013,5 13 57 0,0
21.05.2019 18:00:00 19,9 9,7 21,4 14,2 12,3 27 15 46 25 NNW 1013,6 8 49 0,0
21.05.2019 17:00:00 19,3 11,1 18,9 14,1 12,3 19 10 32 17 N 1013,4 15 6 0,0
21.05.2019 16:00:00 21,0 10,8 20,7 14,0 12,3 15 8 26 14 N 1013,3 10 26 0,0
21.05.2019 15:00:00 20,9 10,4 21,7 13,8 12,3 10 6 21 12 N 1013,3 10 42 0,0
21.05.2019 14:00:00 20,3 10,4 20,4 13,7 12,3 14 8 25 13 NNO 1013,6 7 49 0,0
21.05.2019 13:00:00 19,1 12,1 24,3 13,7 12,3 16 8 29 15 N 1013,9 8 57 0,0
21.05.2019 12:00:00 17,9 11,7 20,5 13,6 12,3 19 10 31 17 N 1014,4 6 46 0,0
21.05.2019 11:00:00 16,7 12,0 21,3 13,6 12,3 17 9 26 14 N 1014,6 6 56 0,0
21.05.2019 10:00:00 15,7 12,1 18,1 13,6 12,3 13 7 18 10 N 1014,7 10 58 0,0
21.05.2019 09:00:00 14,0 12,2 14,4 13,6 12,3 9 5 16 9 N 1014,6 10 38 0,0
21.05.2019 08:00:00 12,9 12,0 12,5 13,7 12,3 6 3 16 9 NW 1014,3 8 33 0,0
21.05.2019 07:00:00 12,0 11,7 11,8 13,7 12,3 0 0 8 4 N 1014,0 2,9 0 0,0
21.05.2019 06:00:00 12,0 11,5 11,7 13,7 12,3 2 1 8 4 WZW 1014,0 3,0 0 0,0
21.05.2019 05:00:00 12,1 11,8 11,8 13,7 12,3 3 2 8 4 ZZW 1013,9 2,8 0 0,0
21.05.2019 04:00:00 12,2 11,7 11,9 13,7 12,3 2 1 6 3 W 1013,7 3,5 0 0,0
21.05.2019 03:00:00 12,3 12,0 11,9 13,7 12,3 3 2 8 4 N 1013,7 3,6 0 0,0
21.05.2019 02:00:00 12,3 12,0 11,6 13,8 12,3 3 2 6 3 NW 1013,6 2,7 0 0,0
21.05.2019 01:00:00 12,3 11,7 11,8 13,8 12,3 4 2 10 5 Z 1013,5 5 0 0,0
21.05.2019 00:00:00 12,8 12,2 12,6 13,8 12,2 6 3 11 6 WNW 1013,6 7 0 0,0
20.05.2019 23:00:00 12,8 12,3 12,4 13,8 12,3 6 3 7 4 NNW 1013,3 4,9 0 0,0
20.05.2019 22:00:00 13,1 12,5 12,8 13,8 12,3 0 0 6 3 N 1012,9 6 0 0,0
20.05.2019 21:00:00 13,3 12,7 13,1 13,7 12,2 3 2 9 5 Z 1012,0 4,2 0 0,0
20.05.2019 20:00:00 13,5 12,6 13,5 13,8 12,3 4 2 8 4 ZZW 1011,8 8 0 0,0
20.05.2019 19:00:00 13,6 12,3 13,6 13,7 12,2 6 3 10 5 Z 1011,5 11 0 0,2
20.05.2019 18:00:00 13,7 12,1 14,0 13,7 12,2 4 2 14 7 Z 1011,2 4,0 0 0,4
20.05.2019 17:00:00 13,9 12,1 14,3 13,6 12,2 4 2 10 5 OZO 1011,0 7 0 0,6
20.05.2019 16:00:00 14,1 12,0 14,2 13,6 12,2 4 2 10 5 O 1010,8 12 0 1,0
20.05.2019 15:00:00 14,1 12,1 14,8 13,6 12,2 0 0 8 4 N 1010,8 5 0 1,2
20.05.2019 14:00:00 14,5 12,0 14,5 13,6 12,2 2 1 9 5 W 1010,5 9 0 0,0
20.05.2019 13:00:00 13,8 11,7 14,3 13,5 12,2 4 2 10 5 N 1010,0 3,0 0 0,2
20.05.2019 12:00:00 13,8 12,0 14,4 13,5 12,2 3 1 7 4 Z 1009,5 6 0 0,0
20.05.2019 11:00:00 13,3 11,7 14,5 13,5 12,2 2 1 9 5 O 1009,4 9 0 0,0
20.05.2019 10:00:00 13,0 12,1 13,3 13,5 12,2 4 2 6 3 O 1008,8 11 0 0,0
20.05.2019 09:00:00 12,6 11,8 12,5 13,6 12,2 5 3 9 5 ZZO 1008,6 12 0 0,0
20.05.2019 08:00:00 12,4 12,1 12,0 13,6 12,2 4 2 9 5 ZZO 1008,0 8 0 0,2
20.05.2019 07:00:00 12,0 11,8 11,6 13,6 12,2 5 3 7 4 Z 1007,5 3,8 0 0,4
20.05.2019 06:00:00 11,7 11,4 11,5 13,6 12,2 4 2 7 4 Z 1007,2 4,3 0 0,2
20.05.2019 05:00:00 11,9 11,6 11,6 13,6 12,2 4 2 7 4 Z 1006,7 2,8 0 0,2
20.05.2019 04:00:00 12,0 11,7 11,6 13,7 12,2 2 1 5 3 Z 1006,8 2,3 0 0,6
20.05.2019 03:00:00 12,1 11,8 11,9 13,7 12,2 4 2 8 5 ZZO 1006,8 1,4 0 0,8
20.05.2019 02:00:00 12,2 11,9 11,9 13,7 12,2 2 1 6 4 ZW 1007,0 1,4 0 0,8
20.05.2019 01:00:00 12,2 11,7 11,7 13,7 12,2 2 1 6 3 ZZO 1007,1 3,1 0 0,0
20.05.2019 00:00:00 12,2 11,9 11,7 13,7 12,2 5 3 9 5 WNW 1007,2 6 0 0,0
19.05.2019 23:00:00 12,1 11,5 11,8 13,8 12,2 6 3 11 6 Z 1007,1 7 0 0,4
19.05.2019 22:00:00 12,4 11,5 12,2 13,8 12,2 7 4 11 6 ZZW 1006,7 11 0 0,2
19.05.2019 21:00:00 12,7 11,6 12,6 13,7 12,2 6 3 16 9 ZZW 1006,0 14 0 0,0

tt = temperatuur
td = dauwpunt
tt 5cm = temperatuur 5cm
tt -20cm = temperatuur -20cm
tt -100cm = temperatuur -100cm
ff = windsnelheid
fx = windstoten
dd = windrichting
ppp = luchtdruk
vv = zicht
sd = Zonneschijnduur
rr = neerslag

Weerstations in de omgeving